Time,TemperatureF,DewpointF,PressureIn,WindDirection,WindDirectionDegrees,WindSpeedMPH,WindSpeedGustMPH,Humidity,HourlyPrecipIn,Conditions,Clouds,dailyrainin,SoftwareType,DateUTC
2013-09-23 00:23:00,36.0,-99.9,-100.00,NNE,22,0.0,0.0,-999,-99.99,,,-99.99,,2013-09-23 08:23:00,
2013-09-23 00:32:00,36.0,-99.9,-100.00,NNE,22,0.0,0.0,-999,-99.99,,,-99.99,,2013-09-23 08:32:00,
2013-09-23 00:52:00,36.0,-99.9,-100.00,NNE,22,0.0,0.0,-999,-99.99,,,-99.99,,2013-09-23 08:52:00,
2013-09-23 01:22:00,38.0,-99.9,-100.00,NNW,338,0.0,0.0,-999,-99.99,,,-99.99,,2013-09-23 09:22:00,
2013-09-23 01:33:00,38.0,-99.9,-100.00,NNW,338,0.0,0.0,-999,-99.99,,,-99.99,,2013-09-23 09:33:00,
2013-09-23 01:43:00,38.0,-99.9,-100.00,NNW,338,0.0,0.0,-999,-99.99,,,-99.99,,2013-09-23 09:43:00,
2013-09-23 01:53:00,38.0,-99.9,-100.00,NNW,338,0.0,0.0,-999,-99.99,,,-99.99,,2013-09-23 09:53:00,
2013-09-23 02:23:00,37.0,-99.9,-100.00,North,9,0.0,0.0,-999,-99.99,,,-99.99,,2013-09-23 10:23:00,
2013-09-23 02:33:00,37.0,-99.9,-100.00,North,9,0.0,0.0,-999,-99.99,,,-99.99,,2013-09-23 10:33:00,
2013-09-23 02:43:00,37.0,-99.9,-100.00,North,9,0.0,0.0,-999,-99.99,,,-99.99,,2013-09-23 10:43:00,
2013-09-23 02:53:00,37.0,-99.9,-100.00,North,9,0.0,0.0,-999,-99.99,,,-99.99,,2013-09-23 10:53:00,
2013-09-23 05:22:00,34.0,-99.9,-100.00,North,7,0.0,0.0,-999,-99.99,,,-99.99,,2013-09-23 13:22:00,
2013-09-23 05:52:00,34.0,-99.9,-100.00,North,7,0.0,0.0,-999,-99.99,,,-99.99,,2013-09-23 13:52:00,
2013-09-23 06:22:00,33.0,-99.9,-100.00,East,86,0.0,0.0,-999,-99.99,,,-99.99,,2013-09-23 14:22:00,
2013-09-23 06:33:00,33.0,-99.9,-100.00,East,86,0.0,0.0,-999,-99.99,,,-99.99,,2013-09-23 14:33:00,
2013-09-23 06:52:00,33.0,-99.9,-100.00,East,86,0.0,0.0,-999,-99.99,,,-99.99,,2013-09-23 14:52:00,
2013-09-23 06:54:00,33.0,-99.9,-100.00,East,86,0.0,0.0,-999,-99.99,,,-99.99,,2013-09-23 14:54:00,
2013-09-23 07:22:00,33.0,-99.9,-100.00,East,86,0.0,0.0,-999,-99.99,,,-99.99,,2013-09-23 15:22:00,
2013-09-23 07:33:00,33.0,-99.9,-100.00,East,86,0.0,0.0,-999,-99.99,,,-99.99,,2013-09-23 15:33:00,
2013-09-23 08:24:00,33.0,-99.9,-100.00,East,86,0.0,0.0,-999,-99.99,,,-99.99,,2013-09-23 16:24:00,
2013-09-23 08:33:00,33.0,-99.9,-100.00,East,86,0.0,0.0,-999,-99.99,,,-99.99,,2013-09-23 16:33:00,
2013-09-23 08:53:00,33.0,-99.9,-100.00,East,86,0.0,0.0,-999,-99.99,,,-99.99,,2013-09-23 16:53:00,
2013-09-23 10:22:00,33.0,-99.9,-100.00,East,86,0.0,0.0,-999,-99.99,,,-99.99,,2013-09-23 18:22:00,
2013-09-23 10:33:00,33.0,-99.9,-100.00,East,86,0.0,0.0,-999,-99.99,,,-99.99,,2013-09-23 18:33:00,
2013-09-23 10:42:00,33.0,-99.9,-100.00,East,86,0.0,0.0,-999,-99.99,,,-99.99,,2013-09-23 18:42:00,
2013-09-23 10:52:00,33.0,-99.9,-100.00,East,86,0.0,0.0,-999,-99.99,,,-99.99,,2013-09-23 18:52:00,
2013-09-23 11:22:00,34.0,-99.9,-100.00,NNE,25,0.0,0.0,-999,-99.99,,,-99.99,,2013-09-23 19:22:00,
2013-09-23 11:33:00,34.0,-99.9,-100.00,NNE,25,0.0,0.0,-999,-99.99,,,-99.99,,2013-09-23 19:33:00,
2013-09-23 11:53:00,34.0,-99.9,-100.00,NNE,25,0.0,0.0,-999,-99.99,,,-99.99,,2013-09-23 19:53:00,
2013-09-23 13:54:00,35.0,-99.9,-100.00,North,1,0.0,4.0,-999,-99.99,,,-99.99,,2013-09-23 21:54:00,
2013-09-23 14:24:00,35.0,-99.9,-100.00,North,1,0.0,4.0,-999,-99.99,,,-99.99,,2013-09-23 22:24:00,
2013-09-23 14:33:00,35.0,-99.9,-100.00,North,1,0.0,4.0,-999,-99.99,,,-99.99,,2013-09-23 22:33:00,
2013-09-23 14:54:00,37.0,-99.9,-100.00,NE,36,3.0,4.0,-999,-99.99,,,-99.99,,2013-09-23 22:54:00,
2013-09-23 15:23:00,37.0,-99.9,-100.00,NE,36,3.0,4.0,-999,-99.99,,,-99.99,,2013-09-23 23:23:00,
2013-09-23 15:34:00,37.0,-99.9,-100.00,NE,36,3.0,4.0,-999,-99.99,,,-99.99,,2013-09-23 23:34:00,
2013-09-23 15:42:00,37.0,-99.9,-100.00,NE,36,3.0,4.0,-999,-99.99,,,-99.99,,2013-09-23 23:42:00,
2013-09-23 16:22:00,38.0,-99.9,-100.00,ESE,115,0.0,0.0,-999,-99.99,,,-99.99,,2013-09-24 00:22:00,
2013-09-23 16:32:00,38.0,-99.9,-100.00,ESE,115,0.0,0.0,-999,-99.99,,,-99.99,,2013-09-24 00:32:00,
2013-09-23 16:43:00,38.0,-99.9,-100.00,ESE,115,0.0,0.0,-999,-99.99,,,-99.99,,2013-09-24 00:43:00,
2013-09-23 16:52:00,38.0,-99.9,-100.00,ESE,115,0.0,0.0,-999,-99.99,,,-99.99,,2013-09-24 00:52:00,
2013-09-23 17:22:00,39.0,-99.9,-100.00,ENE,67,0.0,0.0,-999,-99.99,,,-99.99,,2013-09-24 01:22:00,
2013-09-23 17:32:00,39.0,-99.9,-100.00,ENE,67,0.0,0.0,-999,-99.99,,,-99.99,,2013-09-24 01:32:00,
2013-09-23 17:43:00,39.0,-99.9,-100.00,ENE,67,0.0,0.0,-999,-99.99,,,-99.99,,2013-09-24 01:43:00,
2013-09-23 17:52:00,39.0,-99.9,-100.00,ENE,67,0.0,0.0,-999,-99.99,,,-99.99,,2013-09-24 01:52:00,
2013-09-23 18:55:00,42.0,-99.9,-100.00,WNW,297,0.0,0.0,-999,-99.99,,,-99.99,,2013-09-24 02:55:00,
2013-09-23 19:22:00,42.0,-99.9,-100.00,WNW,297,0.0,0.0,-999,-99.99,,,-99.99,,2013-09-24 03:22:00,
2013-09-23 19:35:00,42.0,-99.9,-100.00,WNW,297,0.0,0.0,-999,-99.99,,,-99.99,,2013-09-24 03:35:00,
2013-09-23 21:23:00,32.0,-99.9,-100.00,NNE,19,0.0,0.0,-999,-99.99,,,-99.99,,2013-09-24 05:23:00,
2013-09-23 21:34:00,32.0,-99.9,-100.00,NNE,19,0.0,0.0,-999,-99.99,,,-99.99,,2013-09-24 05:34:00,
2013-09-23 21:53:00,32.0,-99.9,-100.00,NNE,19,0.0,0.0,-999,-99.99,,,-99.99,,2013-09-24 05:53:00,
2013-09-23 22:22:00,29.0,-99.9,-100.00,NNE,19,0.0,0.0,-999,-99.99,,,-99.99,,2013-09-24 06:22:00,
2013-09-23 22:32:00,29.0,-99.9,-100.00,NNE,19,0.0,0.0,-999,-99.99,,,-99.99,,2013-09-24 06:32:00,
2013-09-23 22:52:00,29.0,-99.9,-100.00,NNE,19,0.0,0.0,-999,-99.99,,,-99.99,,2013-09-24 06:52:00,